Lapse_Rate
8.9 8.1 8.2 6.8 8.6 7.7 7.2 6.3 6.5 7.2 7.2 7.0 6.7 6.6 6.1 5.9 5.3 7.1 6.5 6.2 6.4 6.4 5.8 5.6 5.3 4.7 3.4 2.0 5.6 5.5 4.1 3.5 3.9 3.4 2.0 3.4 2.3 4.7 6.5 6.1 5.7 6.4 6.4 5.9 5.3 4.9 5.3
8.3 8.2 7.3 6.4 7.4 7.2 7.3 6.4 6.3 7.1 7.0 6.7 6.2 5.8 6.4 5.6 5.5 6.9 6.4 6.3 6.3 5.9 5.4 5.0 4.5 3.8 2.7 5.3 5.0 4.6 3.5 2.9 1.8 2.2 1.5 1.2 3.4 3.1 4.3 5.6 6.2 5.9 5.9 5.7 5.5 5.5 5.8
7.5 8.4 8.1 6.9 6.9 6.9 6.4 6.1 6.4 6.9 6.8 5.8 6.3 6.2 6.0 6.5 6.2 6.6 6.7 6.3 5.6 5.2 4.9 4.5 4.8 2.8 1.9 4.8 5.3 4.5 3.2 2.2 1.7 2.8 2.1 2.1 2.8 3.3 4.5 6.3 5.5 5.7 6.5 6.5 6.0 6.0 6.3
7.8 8.2 7.7 7.1 7.3 6.8 6.5 6.5 6.8 7.3 6.7 6.3 6.4 7.0 6.7 6.3 6.8 6.4 5.8 5.5 5.3 5.1 4.8 4.1 3.2 1.0 4.8 6.6 6.1 3.9 3.1 3.8 2.6 2.5 2.3 2.7 2.7 2.1 4.5 5.2 5.0 6.5 6.5 6.5 6.5 6.1 6.2
8.1 7.8 7.4 7.3 7.7 6.4 6.2 6.0 6.7 7.0 7.0 7.0 6.8 6.9 6.6 6.0 5.5 5.2 5.3 5.4 5.6 5.1 4.7 4.0 2.3 1.5 5.4 6.2 4.7 3.4 3.3 3.9 3.4 3.3 2.6 3.4 1.7 3.1 3.9 6.5 6.5 6.5 6.5 6.5 6.5 6.2 6.5
7.6 7.3 7.0 7.0 6.7 6.9 6.7 6.3 6.6 6.6 6.6 6.0 5.7 5.5 5.4 5.2 5.5 5.5 5.0 4.7 4.9 4.6 2.7 3.2 2.4 3.8 5.0 5.4 5.0 4.4 4.0 4.0 3.6 4.3 3.6 2.1 1.1 6.5 6.5 6.5 6.5 6.5 6.5 6.5 6.5 6.5 6.5
6.8 6.3 6.2 6.3 6.5 5.9 6.2 6.3 6.2 5.9 5.9 5.5 5.7 5.1 4.7 4.9 4.7 4.6 3.0 1.7 1.6 2.0 2.6 5.8 5.5 5.1 5.8 5.3 5.3 4.1 3.5 4.3 3.9 2.6 6.5 4.6 6.5 6.5 6.5 6.5 6.5 6.5 6.5 6.5 6.5 6.5 6.5
5.9 5.7 5.4 5.6 5.8 5.5 5.2 5.1 5.1 5.0 4.9 5.1 5.0 5.1 4.6 4.6 3.0 2.5 0.3 0.4 2.2 3.9 5.2 4.8 5.3 5.3 5.8 5.0 5.0 4.3 4.1 4.7 4.7 6.5 6.3 6.5 6.5 6.5 6.5 6.5 6.5 6.5 6.5 6.5 6.5 6.5 6.5
4.6 4.7 4.6 4.4 4.5 4.4 4.2 4.3 4.1 4.1 4.0 3.8 4.1 5.4 4.7 5.1 3.9 1.2 0.3 1.4 1.6 2.6 4.0 5.5 5.4 5.4 5.4 5.1 5.2 4.7 4.5 5.4 6.0 6.5 6.5 6.5 6.5 6.5 6.5 6.5 6.5 6.5 6.5 6.5 6.5 6.5 6.5
4.5 4.4 4.1 3.9 4.0 4.1 4.0 3.7 3.7 3.6 3.2 3.1 3.0 3.3 3.2 4.4 2.8 0.8 1.6 1.2 1.5 2.2 6.5 6.4 5.8 6.0 5.9 5.4 5.8 5.7 4.9 5.7 5.9 6.5 6.5 6.5 6.5 6.5 6.5 6.5 6.5 6.5 6.5 6.5 6.5 6.5 6.5
3.3 3.9 4.0 3.4 3.0 3.0 3.0 3.2 3.1 2.9 2.7 2.5 2.3 2.5 3.0 4.4 1.5 1.6 1.9 0.9 1.7 2.8 6.5 6.5 5.8 6.4 5.7 5.7 6.4 5.7 5.3 5.0 6.5 6.5 6.5 6.5 6.5 6.5 6.5 6.5 6.5 6.5 6.5 6.5 6.5 6.5 6.5
3.2 3.0 3.0 3.3 2.7 2.5 2.3 2.3 2.4 2.3 2.0 1.9 2.1 3.0 3.0 1.3 -0.1 1.1 0.8 1.2 2.0 6.5 6.5 6.5 6.0 6.2 6.3 5.9 6.1 5.6 5.6 4.9 6.2 6.5 6.5 6.5 6.3 6.5 6.5 6.5 6.5 6.5 6.5 6.5 6.5 6.5 6.5
3.4 2.8 2.7 2.8 2.9 2.7 2.6 2.5 2.3 2.2 1.8 1.6 1.9 2.9 2.4 1.4 2.4 0.7 0.9 1.9 6.5 6.5 6.5 6.5 6.5 6.5 6.5 6.5 6.5 6.4 6.5 6.5 6.5 6.5 6.5 6.5 6.5 6.5 6.4 6.5 6.5 6.5 6.5 6.5 6.5 6.5 6.5
3.0 3.3 3.1 2.8 2.9 3.1 3.1 2.7 2.2 1.8 1.4 1.5 2.0 2.6 1.1 1.3 1.4 0.9 1.1 5.8 6.5 6.5 6.5 6.5 6.5 6.5 6.5 6.5 6.5 6.5 6.5 6.5 6.5 6.5 6.5 6.5 6.5 6.5 6.5 6.5 6.5 6.5 6.5 6.5 6.5 6.5 6.5
3.3 3.0 3.0 3.2 3.2 2.7 2.7 2.9 2.5 1.6 0.8 0.9 1.8 -0.8 0.0 0.7 0.9 0.2 2.5 6.5 6.5 6.5 6.5 6.5 6.5 6.5 6.5 6.5 6.5 6.5 6.5 6.5 6.5 6.5 6.5 6.5 6.5 6.5 6.5 6.5 6.5 6.5 6.5 6.5 6.5 6.5 6.5
3.1 3.1 3.0 2.8 2.5 2.5 2.5 2.2 2.1 1.4 0.6 0.6 -0.5 0.2 0.9 0.6 0.1 0.4 5.1 6.5 6.5 6.3 6.4 6.5 6.5 6.5 6.5 6.5 6.5 6.5 6.5 6.5 6.5 6.4 6.1 6.5 6.5 6.5 6.5 6.4 6.3 6.5 6.5 6.5 6.5 6.5 6.5
2.3 2.8 3.0 2.8 2.6 2.3 2.0 2.0 1.7 1.5 0.7 0.8 -0.8 2.3 1.3 -0.2 -0.4 0.1 6.5 6.5 6.5 6.2 6.3 6.5 6.5 6.5 6.5 6.5 6.5 6.5 6.5 6.5 6.4 6.5 6.3 6.5 6.5 6.5 6.5 6.5 6.5 6.5 6.5 6.5 6.5 6.5 6.5
2.4 2.3 2.3 2.3 2.3 2.3 2.2 1.8 1.5 0.8 0.3 -1.0 -1.0 4.5 0.5 -1.1 2.6 4.0 6.5 6.5 6.3 6.3 5.9 6.4 6.4 6.5 6.5 6.5 6.5 6.5 6.5 6.5 5.0 5.3 6.5 6.5 6.5 6.5 6.5 6.5 6.5 6.5 6.5 6.5 6.5 6.5 6.5
2.7 2.6 2.3 2.2 2.1 2.0 2.0 2.1 1.8 1.2 0.3 -2.2 -0.1 0.4 -0.2 0.4 6.5 6.5 6.2 6.5 6.3 6.4 6.5 6.5 6.5 6.4 6.5 6.5 6.5 6.5 6.5 6.1 4.7 6.1 6.5 6.5 6.5 6.5 6.5 6.5 6.5 6.5 6.5 6.5 6.5 6.5 6.5
3.4 3.7 2.9 2.5 2.5 2.2 1.9 1.8 2.0 1.4 0.6 -2.1 0.0 6.5 0.6 -0.7 1.9 6.2 6.5 6.5 6.5 6.1 6.3 6.1 6.4 6.4 6.5 6.5 6.5 6.5 6.5 6.4 5.3 5.9 6.2 5.8 6.5 6.5 6.5 6.5 6.5 6.5 6.5 6.5 6.5 6.5 6.5
3.2 3.6 4.0 3.4 2.6 2.4 2.3 2.1 1.8 1.5 1.2 -0.3 -0.8 4.3 3.5 6.5 5.5 6.0 6.3 6.5 6.5 6.5 6.2 6.1 6.5 6.5 6.5 6.5 6.5 6.5 6.5 6.5 6.2 6.4 5.9 6.4 6.5 6.5 6.5 6.5 6.5 6.5 6.5 6.5 6.5 6.5 6.5
3.5 3.6 3.9 4.1 3.9 2.8 2.4 2.2 2.3 1.6 1.3 -1.0 2.1 3.4 2.0 3.6 4.2 6.4 6.4 6.5 6.5 6.5 6.4 6.5 6.5 6.5 6.5 6.5 6.5 6.5 6.5 6.5 6.5 6.4 6.5 6.4 6.5 6.5 6.5 6.5 6.5 6.5 6.5 6.5 6.5 6.5 6.5
4.0 4.4 4.2 4.3 4.2 3.4 2.8 2.5 2.4 2.6 2.2 0.0 -0.6 0.8 3.4 5.4 5.6 6.5 6.5 6.5 6.5 6.3 5.7 5.6 5.7 6.5 6.5 6.2 3.9 3.6 4.0 4.4 5.4 6.4 6.5 6.5 6.5 6.5 6.5 6.5 6.5 6.5 6.5 6.5 6.5 6.5 6.5
4.4 4.3 4.4 4.3 4.0 3.8 3.6 3.2 3.0 2.8 2.5 0.4 0.3 1.1 3.4 6.5 6.2 6.4 6.4 6.2 6.5 6.3 6.5 6.1 5.1 6.2 5.7 5.0 4.6 4.7 4.6 4.7 5.2 5.5 4.5 6.5 6.5 6.5 6.5 6.5 6.5 6.5 6.5 6.5 6.5 6.5 6.5
4.8 4.7 4.5 4.4 4.3 4.2 4.1 4.0 4.0 3.6 3.3 0.9 0.1 2.3 3.4 6.5 5.4 5.9 6.1 6.0 5.4 5.5 6.1 6.0 5.6 4.7 3.4 4.6 6.5 6.5 6.5 6.5 6.5 6.5 6.4 5.9 6.5 6.5 6.5 6.5 6.5 6.5 6.5 6.5 6.5 6.5 6.5
4.9 4.7 4.6 4.5 4.6 4.5 4.5 4.4 4.4 4.2 3.8 2.0 1.7 2.0 3.4 5.1 6.0 5.7 5.7 6.1 6.5 6.5 6.4 5.9 5.2 4.0 4.7 5.6 6.5 6.5 6.5 6.5 6.5 6.5 6.1 6.5 6.5 6.5 6.5 6.5 6.5 6.5 6.5 5.2 6.2 6.5 6.2
4.6 4.4 4.3 4.4 4.7 4.7 4.7 4.6 4.5 4.6 4.8 4.0 3.4 4.1 4.8 5.1 3.7 5.1 5.4 6.1 4.9 5.8 6.5 5.7 5.9 6.1 5.3 6.5 6.5 6.5 6.5 6.5 6.5 6.5 6.5 6.5 6.5 6.5 6.5 6.5 6.5 6.5 5.9 5.8 6.5 6.5 5.9
4.3 4.4 4.5 4.5 4.6 4.6 4.7 4.7 4.6 4.7 5.0 4.5 4.9 4.6 5.6 5.6 4.6 4.6 5.8 5.6 5.2 5.5 6.5 6.0 6.1 5.7 6.0 6.5 6.5 6.5 6.5 6.5 6.5 6.5 6.5 6.5 6.5 6.5 6.5 6.5 6.5 5.2 5.9 6.5 6.1 4.6 5.6
4.1 4.1 4.6 4.7 4.4 4.5 4.8 4.7 4.6 4.8 5.2 4.8 5.1 3.8 4.5 5.1 5.2 4.1 5.0 5.6 6.4 6.6 6.2 5.4 5.2 5.6 5.8 6.5 6.5 6.5 6.5 6.5 6.5 6.5 6.5 6.5 6.5 6.5 6.5 6.5 6.0 4.8 4.9 3.4 3.4 4.8 5.0
Wind_Speed
32 30 27 23 27 25 27 29 29 27 25 22 21 21 18 23 17 27 27 23 21 17 11 4 2 3 5 8 4 10 21 19 7 5 6 4 6 3 5 3 2 4 1 3 3 4 4
31 30 28 25 26 25 25 28 26 22 25 24 14 21 23 24 19 26 25 22 16 8 5 5 8 6 6 9 8 13 14 8 8 6 6 7 4 3 6 4 4 0 1 3 2 4 3
31 31 28 26 30 37 33 28 24 26 29 25 37 33 24 25 24 26 22 20 16 14 12 8 14 5 15 4 4 12 10 5 5 3 5 4 1 5 3 3 1 1 3 3 4 4 3
29 29 28 31 34 34 34 31 27 29 28 30 34 33 29 23 21 20 18 17 14 11 9 11 9 5 5 4 6 7 8 5 7 5 5 4 5 8 5 3 5 5 4 4 3 5 2
28 28 28 30 31 32 34 35 33 28 26 28 29 31 27 24 20 16 15 15 13 13 11 2 8 7 3 8 5 6 5 3 5 5 7 3 6 5 5 4 4 7 1 2 7 3 3
28 28 27 26 28 29 31 32 29 25 25 27 27 26 23 24 20 14 9 7 18 9 8 4 3 6 5 4 4 5 4 4 6 3 5 8 6 4 5 5 2 2 3 3 4 4 3
26 25 25 27 27 27 28 28 26 26 27 28 28 26 25 21 16 16 8 4 5 8 12 5 3 5 2 6 2 6 4 5 4 8 5 5 7 3 1 2 3 4 1 3 4 3 7
24 25 24 24 26 27 28 27 27 28 27 26 24 20 18 20 24 9 6 6 2 4 7 5 4 4 1 2 4 10 6 5 6 4 3 6 4 2 1 1 2 1 1 4 5 4 3
23 24 24 24 24 25 25 25 24 22 20 21 22 21 13 9 6 9 6 4 4 1 6 5 3 4 3 5 4 8 5 2 5 5 5 5 3 1 1 1 2 2 2 1 4 6 2
20 22 23 23 23 23 23 23 23 23 22 23 22 20 15 4 8 1 4 4 4 1 5 9 6 4 3 1 5 2 3 2 5 3 2 4 1 1 1 1 2 3 3 1 5 4 3
19 19 20 21 22 23 22 22 21 20 19 18 16 15 14 7 5 3 0 3 1 3 5 5 6 2 3 4 0 6 2 4 3 2 3 2 4 2 1 1 2 4 1 2 1 1 3
19 19 19 19 21 22 22 22 20 19 18 15 14 13 7 5 3 2 4 2 3 6 2 5 4 5 3 4 2 3 3 5 2 3 3 1 0 2 2 1 2 2 2 4 3 1 2
17 19 18 17 17 19 19 19 19 18 17 12 9 7 5 2 1 4 3 3 5 6 3 3 2 4 2 4 4 4 4 5 2 4 4 5 2 1 1 1 1 6 6 3 5 4 4
16 16 17 18 16 15 16 18 20 20 18 9 3 3 5 4 7 5 3 5 8 1 3 2 1 1 3 3 2 3 2 2 1 4 3 3 6 1 2 1 3 3 4 4 4 2 5
14 15 15 15 15 16 17 16 18 20 20 11 3 3 2 2 4 2 4 6 6 5 2 4 0 3 3 1 0 3 1 3 3 2 3 3 3 1 2 1 3 0 3 2 3 2 3
13 14 14 15 16 16 16 18 20 21 21 9 2 2 2 9 4 3 5 4 1 2 1 0 1 1 0 3 3 4 1 1 1 1 2 3 3 1 2 2 3 1 5 2 3 2 5
12 13 14 15 16 17 18 18 19 20 19 5 3 3 3 11 2 5 4 3 3 2 1 2 2 1 1 1 1 2 1 1 3 2 2 3 3 3 1 4 7 2 1 2 3 4 3
12 12 13 14 16 17 18 20 22 23 18 8 2 2 3 3 4 2 3 4 3 2 2 2 2 1 3 1 2 2 3 4 5 5 3 2 3 4 7 1 1 1 5 5 4 3 2
9 10 11 13 15 16 18 19 21 21 12 3 2 2 2 3 3 2 1 2 1 2 2 3 3 3 2 2 1 3 2 1 5 5 5 4 1 4 5 4 2 4 5 4 4 2 6
10 11 10 12 13 15 17 19 21 22 6 3 3 3 4 4 1 5 3 0 1 1 1 2 2 2 1 1 2 2 2 1 4 3 3 4 3 6 6 3 2 4 4 6 6 3 4
8 9 11 12 13 14 17 20 22 23 5 3 4 0 3 2 4 2 2 2 2 2 1 1 1 4 5 2 1 3 3 4 1 0 2 3 4 3 7 12 9 13 14 10 13 14 8
7 8 10 11 11 12 15 19 24 25 5 4 3 3 1 0 2 1 2 4 4 1 5 3 3 3 5 6 8 6 5 4 6 2 5 1 3 1 5 9 7 12 18 18 19 19 19
5 7 8 10 11 12 13 15 20 26 7 3 1 1 3 1 1 2 2 3 4 3 4 4 6 3 4 10 7 7 6 4 4 7 6 5 3 3 6 4 9 8 7 12 7 5 15
6 6 6 6 8 10 12 12 14 17 11 3 1 2 3 1 1 3 1 2 2 2 3 0 3 4 3 1 3 2 1 4 4 6 6 6 5 2 4 7 2 5 2 8 11 8 19
8 7 7 6 6 7 9 10 10 9 10 3 2 2 1 2 2 3 3 4 4 2 2 3 3 3 3 4 3 6 3 2 0 1 6 4 5 2 3 2 9 6 3 6 6 7 11
11 8 7 6 6 6 7 8 9 8 6 3 0 2 2 2 3 1 1 2 2 1 3 3 1 0 4 2 2 2 4 2 3 2 5 4 1 4 2 3 6 2 2 4 3 6 4
12 10 8 5 6 6 7 8 7 6 5 2 1 2 2 1 3 4 3 3 2 0 2 2 1 1 2 2 2 4 4 2 4 4 5 4 2 12 8 4 10 9 7 3 2 5 2
10 9 7 6 5 5 8 10 9 6 4 3 2 3 1 2 5 6 3 4 2 1 2 1 2 1 2 3 3 4 4 4 2 4 5 7 7 5 4 4 10 7 4 7 3 4 3
3 2 4 3 3 6 9 9 9 7 6 7 2 1 1 2 4 3 6 9 8 7 4 4 2 2 4 1 2 1 3 2 3 3 1 3 6 4 10 7 3 3 4 6 4 7 12
Wind_Direction
35 33 43 42 39 38 40 44 63 91 84 101 106 117 121 111 95 114 112 117 119 125 129 113 82 77 57 51 47 311 333 344 2 36 49 60 54 89 89 80 49 70 17 42 11 324 287
37 41 47 43 41 38 51 51 43 75 79 87 101 123 124 113 110 112 106 104 105 137 137 113 104 84 68 76 276 320 341 345 20 45 27 37 94 95 91 64 64 345 31 335 351 341 2
39 48 50 40 47 47 58 50 49 72 82 58 74 122 132 106 113 107 104 96 93 95 96 90 103 92 65 131 313 334 8 17 355 32 77 29 77 79 113 89 283 40 45 7 21 6 351
38 47 45 57 52 51 52 47 63 82 74 63 71 82 91 89 90 94 96 93 89 92 90 84 87 71 87 307 320 7 348 9 16 31 79 39 70 92 59 144 29 39 49 12 338 3 4
46 44 42 52 49 52 54 57 68 75 59 52 59 66 64 64 62 70 81 83 92 78 60 95 41 87 56 331 22 324 20 16 344 14 33 61 61 77 24 64 28 14 296 335 323 15 315
48 47 41 43 45 52 56 59 54 55 54 53 53 49 52 54 49 49 48 53 57 47 8 41 69 57 15 334 316 335 330 33 48 347 21 37 46 69 34 51 229 332 356 319 265 323 330
45 49 39 35 37 42 50 52 48 47 45 44 48 48 49 42 47 33 23 16 23 7 32 67 301 92 21 306 344 353 356 4 22 51 44 15 65 81 140 63 120 116 136 270 266 295 330
42 41 41 41 36 38 40 40 40 38 36 38 39 46 51 45 42 37 60 73 68 162 70 26 51 59 52 309 23 355 11 59 45 57 356 28 80 212 263 63 82 84 323 296 280 271 304
35 38 36 36 37 34 38 38 37 38 35 29 27 27 17 39 36 45 76 58 327 348 84 7 11 36 332 37 54 341 21 46 74 51 26 115 160 157 99 65 33 266 218 304 241 316 232
40 35 34 30 32 34 34 33 31 27 22 20 19 20 27 62 38 348 51 338 333 165 82 333 354 5 5 67 41 332 7 92 38 121 81 88 176 117 124 217 141 331 192 327 310 27 284
29 37 36 29 26 29 27 29 26 22 18 14 9 12 40 55 147 61 293 338 295 58 66 303 319 289 348 79 180 357 308 31 81 105 104 212 163 179 241 232 127 240 314 262 226 146 12
30 30 31 36 27 25 23 20 16 11 7 2 0 3 350 26 47 54 12 29 45 43 265 341 317 352 41 18 29 318 52 51 131 88 27 134 223 185 241 303 216 351 69 36 50 330 26
29 26 29 32 36 27 23 17 10 4 352 344 348 20 43 28 12 1 72 40 42 93 287 317 2 18 55 0 17 30 33 22 68 59 353 342 238 272 189 342 35 47 51 336 351 8 222
19 29 26 24 27 34 26 13 7 2 351 346 35 89 40 49 3 17 49 51 67 210 206 220 240 123 88 348 2 11 76 50 40 80 95 79 331 188 140 184 181 47 126 141 236 302 282
25 17 22 25 23 16 14 14 7 1 356 351 138 12 49 346 17 98 77 53 184 207 158 156 132 88 360 6 344 40 65 185 208 157 113 58 284 266 187 144 105 10 37 183 91 319 317
16 19 18 16 13 12 11 5 3 1 359 3 80 57 303 337 11 83 79 137 157 214 209 82 86 42 100 318 25 22 325 200 162 144 110 182 327 306 333 122 32 144 165 45 21 11 303
12 12 11 13 12 8 3 3 1 359 359 4 54 55 271 344 69 55 99 198 192 204 130 102 151 115 251 317 342 308 273 290 177 153 101 133 122 284 37 198 180 141 178 95 126 154 186
10 9 7 7 7 6 4 0 357 356 353 55 84 35 312 2 45 40 100 159 176 152 55 89 106 140 194 195 263 252 240 226 169 152 153 178 151 268 224 105 117 214 198 159 130 223 223
13 6 5 3 3 3 3 2 356 355 358 109 71 298 331 63 95 26 269 104 140 124 206 167 190 195 172 216 272 203 250 326 156 153 167 181 335 336 356 7 21 227 198 161 107 80 206
8 6 8 5 1 0 2 3 360 354 355 70 85 22 335 42 42 118 123 143 163 350 158 173 163 102 93 292 221 287 269 246 187 192 164 132 174 197 205 215 138 225 205 196 168 174 203
355 1 3 3 2 359 360 2 3 1 6 81 29 173 183 343 358 41 49 151 147 229 268 222 325 207 176 224 265 237 247 308 133 239 90 130 244 196 267 269 259 259 250 213 210 219 216
337 348 354 359 1 1 1 3 3 8 15 77 99 120 57 123 298 99 20 197 204 255 160 229 205 181 194 208 202 210 185 198 220 83 155 39 269 17 264 268 263 263 247 235 233 237 249
310 327 339 347 355 0 5 7 9 11 56 82 359 6 110 343 58 82 237 191 214 181 203 202 195 165 215 238 227 229 214 224 204 164 184 165 192 14 273 325 300 284 235 194 199 213 222
284 291 311 328 349 359 4 8 14 22 50 114 159 99 69 296 171 213 242 202 256 257 274 283 165 162 254 335 317 290 238 243 216 229 177 156 152 173 279 336 316 241 248 192 195 218 215
257 267 283 304 325 347 355 3 5 15 25 82 152 102 102 291 228 285 227 230 285 282 236 236 233 214 340 32 334 326 329 299 135 224 222 191 151 236 248 259 292 293 166 149 179 281 219
249 248 256 282 306 324 340 353 354 348 360 75 151 152 110 92 247 248 293 213 245 253 304 253 260 220 70 83 68 266 262 266 242 181 32 128 129 185 142 216 254 259 166 153 174 291 192
242 246 250 269 297 319 339 347 348 345 321 347 295 211 108 176 257 165 202 190 148 310 253 294 239 193 71 127 212 205 254 217 260 200 171 118 167 216 220 260 281 255 219 16 76 246 211
235 250 256 260 278 309 322 328 331 322 303 174 288 226 211 227 270 193 215 170 159 210 207 288 325 351 65 192 195 221 206 235 277 177 184 179 161 193 184 213 271 168 69 183 276 348 296
198 319 320 343 12 346 328 328 329 306 290 189 275 354 179 223 267 228 233 232 211 208 182 212 241 172 221 189 243 274 245 248 213 253 95 249 204 193 196 214 312 254 283 276 276 296 304